Year,Month,Day,Hour,Minute,Value (Times are PST for windgust in km/hr)
2011,01,15,00,00,3.20
2011,01,15,00,01,3.20
2011,01,15,00,02,6.40
2011,01,15,00,03,1.60
2011,01,15,00,04,1.60
2011,01,15,00,05,1.60
2011,01,15,00,06,3.20
2011,01,15,00,07,3.20
2011,01,15,00,08,1.60
2011,01,15,00,09,3.20
2011,01,15,00,10,3.20
2011,01,15,00,11,6.40
2011,01,15,00,12,4.80
2011,01,15,00,14,1.60
2011,01,15,00,15,4.80
2011,01,15,00,16,8.10
2011,01,15,00,17,3.20
2011,01,15,00,18,4.80
2011,01,15,00,19,6.40
2011,01,15,00,20,6.40
2011,01,15,00,21,9.60
2011,01,15,00,22,9.60
2011,01,15,00,23,8.10
2011,01,15,00,24,6.40
2011,01,15,00,25,3.20
2011,01,15,00,26,4.80
2011,01,15,00,27,1.60
2011,01,15,00,28,6.40
2011,01,15,00,29,4.80
2011,01,15,00,30,6.40
2011,01,15,00,31,4.80
2011,01,15,00,32,1.60
2011,01,15,00,33,4.80
2011,01,15,00,34,4.80
2011,01,15,00,35,8.10
2011,01,15,00,36,4.80
2011,01,15,00,37,6.40
2011,01,15,00,38,4.80
2011,01,15,00,39,4.80
2011,01,15,00,40,4.80
2011,01,15,00,41,4.80
2011,01,15,00,43,11.30
2011,01,15,00,44,11.30
2011,01,15,00,45,1.60
2011,01,15,00,46,9.60
2011,01,15,00,47,11.30
2011,01,15,00,48,9.60
2011,01,15,00,49,8.10
2011,01,15,00,50,8.10
2011,01,15,00,51,1.60
2011,01,15,00,52,8.10
2011,01,15,00,53,19.30
2011,01,15,00,54,22.50
2011,01,15,00,55,20.90
2011,01,15,00,56,9.60
2011,01,15,00,57,19.30
2011,01,15,00,58,20.90
2011,01,15,00,59,22.50
2011,01,15,01,00,33.80
2011,01,15,01,01,20.90
2011,01,15,01,02,24.20
2011,01,15,01,03,22.50
2011,01,15,01,04,16.10
2011,01,15,01,05,22.50
2011,01,15,01,06,19.30
2011,01,15,01,07,20.90
2011,01,15,01,08,19.30
2011,01,15,01,09,27.40
2011,01,15,01,10,20.90
2011,01,15,01,11,9.60
2011,01,15,01,12,29.00
2011,01,15,01,13,22.50
2011,01,15,01,14,8.10
2011,01,15,01,15,9.60
2011,01,15,01,16,9.60
2011,01,15,01,17,8.10
2011,01,15,01,18,17.70
2011,01,15,01,19,16.10
2011,01,15,01,20,14.50
2011,01,15,01,21,6.40
2011,01,15,01,22,25.70
2011,01,15,01,23,9.60
2011,01,15,01,24,11.30
2011,01,15,01,25,6.40
2011,01,15,01,26,6.40
2011,01,15,01,27,1.60
2011,01,15,01,28,4.80
2011,01,15,01,29,4.80
2011,01,15,01,30,11.30
2011,01,15,01,31,16.10
2011,01,15,01,32,6.40
2011,01,15,01,33,4.80
2011,01,15,01,34,3.20
2011,01,15,01,35,14.50
2011,01,15,01,36,30.60
2011,01,15,01,37,17.70
2011,01,15,01,38,19.30
2011,01,15,01,39,8.10
2011,01,15,01,40,4.80
2011,01,15,01,41,4.80
2011,01,15,01,42,9.60
2011,01,15,01,43,9.60
2011,01,15,01,44,19.30
2011,01,15,01,45,9.60
2011,01,15,01,46,14.50
2011,01,15,01,47,8.10
2011,01,15,01,48,17.70
2011,01,15,01,49,14.50
2011,01,15,01,50,8.10
2011,01,15,01,51,6.40
2011,01,15,01,52,14.50
2011,01,15,01,53,3.20
2011,01,15,01,54,1.60
2011,01,15,01,55,16.10
2011,01,15,01,56,11.30
2011,01,15,01,57,11.30
2011,01,15,01,58,9.60
2011,01,15,01,59,4.80
2011,01,15,02,00,4.80
2011,01,15,02,01,1.60
2011,01,15,02,02,8.10
2011,01,15,02,03,6.40
2011,01,15,02,04,4.80
2011,01,15,02,05,11.30
2011,01,15,02,06,3.20
2011,01,15,02,07,6.40
2011,01,15,02,08,4.80
2011,01,15,02,09,4.80
2011,01,15,02,10,8.10
2011,01,15,02,11,11.30
2011,01,15,02,12,6.40
2011,01,15,02,13,9.60
2011,01,15,02,14,8.10
2011,01,15,02,15,1.60
2011,01,15,02,16,3.20
2011,01,15,02,17,6.40
2011,01,15,02,18,1.60
2011,01,15,02,19,1.60
2011,01,15,02,20,4.80
2011,01,15,02,21,1.60
2011,01,15,02,22,9.60
2011,01,15,02,23,20.90
2011,01,15,02,24,8.10
2011,01,15,02,25,4.80
2011,01,15,02,26,8.10
2011,01,15,02,27,6.40
2011,01,15,02,28,8.10
2011,01,15,02,29,19.30
2011,01,15,02,30,11.30
2011,01,15,02,31,6.40
2011,01,15,02,32,9.60
2011,01,15,02,33,11.30
2011,01,15,02,34,8.10
2011,01,15,02,35,4.80
2011,01,15,02,36,4.80
2011,01,15,02,37,6.40
2011,01,15,02,38,4.80
2011,01,15,02,39,4.80
2011,01,15,02,40,9.60
2011,01,15,02,41,4.80
2011,01,15,02,42,4.80
2011,01,15,02,43,1.60
2011,01,15,02,44,8.10
2011,01,15,02,45,3.20
2011,01,15,02,46,1.60
2011,01,15,02,47,3.20
2011,01,15,02,48,8.10
2011,01,15,02,49,14.50
2011,01,15,02,50,11.30
2011,01,15,02,51,11.30
2011,01,15,02,52,19.30
2011,01,15,02,53,14.50
2011,01,15,02,54,17.70
2011,01,15,02,55,11.30
2011,01,15,02,56,16.10
2011,01,15,02,57,12.90
2011,01,15,02,58,1.60
2011,01,15,02,59,14.50
2011,01,15,03,00,14.50
2011,01,15,03,01,12.90
2011,01,15,03,02,11.30
2011,01,15,03,06,17.70
2011,01,15,03,07,6.40
2011,01,15,03,08,6.40
2011,01,15,03,09,20.90
2011,01,15,03,10,19.30
2011,01,15,03,11,6.40
2011,01,15,03,12,9.60
2011,01,15,03,13,9.60
2011,01,15,03,14,1.60
2011,01,15,03,15,9.60
2011,01,15,03,16,9.60
2011,01,15,03,17,9.60
2011,01,15,03,18,16.10
2011,01,15,03,19,6.40
2011,01,15,03,20,11.30
2011,01,15,03,21,9.60
2011,01,15,03,22,11.30
2011,01,15,03,23,16.10
2011,01,15,03,24,11.30
2011,01,15,03,25,11.30
2011,01,15,03,26,17.70
2011,01,15,03,27,14.50
2011,01,15,03,28,6.40
2011,01,15,03,29,16.10
2011,01,15,03,30,17.70
2011,01,15,03,31,19.30
2011,01,15,03,32,16.10
2011,01,15,03,33,8.10
2011,01,15,03,34,6.40
2011,01,15,03,35,6.40
2011,01,15,03,36,3.20
2011,01,15,03,37,3.20
2011,01,15,03,38,9.60
2011,01,15,03,39,12.90
2011,01,15,03,40,8.10
2011,01,15,03,41,4.80
2011,01,15,03,42,8.10
2011,01,15,03,43,11.30
2011,01,15,03,44,6.40
2011,01,15,03,45,16.10
2011,01,15,03,46,1.60
2011,01,15,03,47,3.20
2011,01,15,03,48,3.20
2011,01,15,03,49,3.20
2011,01,15,03,50,11.30
2011,01,15,03,51,11.30
2011,01,15,03,52,16.10
2011,01,15,03,53,4.80
2011,01,15,03,54,3.20
2011,01,15,03,55,11.30
2011,01,15,03,56,17.70
2011,01,15,03,57,8.10
2011,01,15,03,58,11.30
2011,01,15,03,59,11.30
2011,01,15,04,00,12.90
2011,01,15,04,01,9.60
2011,01,15,04,02,9.60
2011,01,15,04,03,3.20
2011,01,15,04,04,3.20
2011,01,15,04,05,8.10
2011,01,15,04,06,6.40
2011,01,15,04,07,11.30
2011,01,15,04,08,8.10
2011,01,15,04,09,6.40
2011,01,15,04,10,6.40
2011,01,15,04,11,8.10
2011,01,15,04,12,16.10
2011,01,15,04,13,12.90
2011,01,15,04,14,6.40
2011,01,15,04,15,8.10
2011,01,15,04,16,11.30
2011,01,15,04,17,8.10
2011,01,15,04,18,9.60
2011,01,15,04,19,8.10
2011,01,15,04,20,4.80
2011,01,15,04,21,1.60
2011,01,15,04,22,1.60
2011,01,15,04,23,3.20
2011,01,15,04,24,3.20
2011,01,15,04,25,1.60
2011,01,15,04,26,3.20
2011,01,15,04,27,1.60
2011,01,15,04,28,4.80
2011,01,15,04,29,6.40
2011,01,15,04,30,3.20
2011,01,15,04,31,1.60
2011,01,15,04,32,1.60
2011,01,15,04,33,3.20
2011,01,15,04,34,4.80
2011,01,15,04,35,3.20
2011,01,15,04,36,8.10
2011,01,15,04,37,6.40
2011,01,15,04,38,6.40
2011,01,15,04,39,4.80
2011,01,15,04,40,1.60
2011,01,15,04,41,1.60
2011,01,15,04,42,3.20
2011,01,15,04,44,3.20
2011,01,15,04,45,1.60
2011,01,15,04,46,3.20
2011,01,15,04,47,3.20
2011,01,15,04,48,3.20
2011,01,15,04,50,1.60
2011,01,15,04,51,1.60
2011,01,15,04,54,1.60
2011,01,15,04,55,1.60
2011,01,15,04,58,1.60
2011,01,15,04,59,1.60
2011,01,15,05,00,1.60
2011,01,15,05,01,1.60
2011,01,15,05,07,1.60
2011,01,15,05,08,3.20
2011,01,15,05,09,1.60
2011,01,15,05,13,1.60
2011,01,15,05,16,1.60
2011,01,15,05,18,3.20
2011,01,15,05,19,1.60
2011,01,15,05,22,1.60
2011,01,15,05,23,8.10
2011,01,15,05,24,6.40
2011,01,15,05,25,8.10
2011,01,15,05,26,6.40
2011,01,15,05,27,8.10
2011,01,15,05,28,8.10
2011,01,15,05,29,11.30
2011,01,15,05,30,8.10
2011,01,15,05,31,6.40
2011,01,15,05,32,4.80
2011,01,15,05,33,6.40
2011,01,15,05,34,4.80
2011,01,15,05,35,3.20
2011,01,15,05,36,1.60
2011,01,15,05,37,4.80
2011,01,15,05,38,8.10
2011,01,15,05,39,4.80
2011,01,15,05,40,9.60
2011,01,15,05,41,6.40
2011,01,15,05,42,6.40
2011,01,15,05,43,3.20
2011,01,15,05,44,1.60
2011,01,15,05,45,6.40
2011,01,15,05,46,3.20
2011,01,15,05,47,1.60
2011,01,15,05,48,3.20
2011,01,15,05,49,3.20
2011,01,15,05,50,8.10
2011,01,15,05,51,8.10
2011,01,15,05,52,6.40
2011,01,15,05,53,3.20
2011,01,15,05,54,3.20
2011,01,15,05,57,3.20
2011,01,15,05,58,6.40
2011,01,15,05,59,4.80
2011,01,15,06,00,3.20
2011,01,15,06,01,3.20
2011,01,15,06,02,3.20
2011,01,15,06,03,1.60
2011,01,15,06,04,1.60
2011,01,15,06,05,1.60
2011,01,15,06,06,3.20
2011,01,15,06,07,1.60
2011,01,15,06,08,4.80
2011,01,15,06,09,4.80
2011,01,15,06,10,4.80
2011,01,15,06,11,6.40
2011,01,15,06,12,4.80
2011,01,15,06,13,4.80
2011,01,15,06,14,4.80
2011,01,15,06,15,1.60
2011,01,15,06,16,1.60
2011,01,15,06,17,3.20
2011,01,15,06,18,1.60
2011,01,15,06,19,3.20
2011,01,15,06,20,4.80
2011,01,15,06,21,3.20
2011,01,15,06,22,3.20
2011,01,15,06,23,3.20
2011,01,15,06,24,4.80
2011,01,15,06,25,4.80
2011,01,15,06,26,4.80
2011,01,15,06,27,4.80
2011,01,15,06,28,4.80
2011,01,15,06,29,4.80
2011,01,15,06,30,4.80
2011,01,15,06,31,1.60
2011,01,15,06,32,3.20
2011,01,15,06,33,1.60
2011,01,15,06,34,1.60
2011,01,15,06,35,1.60
2011,01,15,06,36,1.60
2011,01,15,06,37,3.20
2011,01,15,06,38,3.20
2011,01,15,06,39,1.60
2011,01,15,06,40,3.20
2011,01,15,06,41,3.20
2011,01,15,06,42,1.60
2011,01,15,06,44,1.60
2011,01,15,06,45,3.20
2011,01,15,06,46,3.20
2011,01,15,06,47,1.60
2011,01,15,06,50,3.20
2011,01,15,06,51,3.20
2011,01,15,06,52,4.80
2011,01,15,06,53,3.20
2011,01,15,06,54,1.60
2011,01,15,06,55,1.60
2011,01,15,06,56,3.20
2011,01,15,06,57,3.20
2011,01,15,06,58,4.80
2011,01,15,06,59,3.20
2011,01,15,07,00,3.20
2011,01,15,07,01,4.80
2011,01,15,07,02,6.40
2011,01,15,07,03,4.80
2011,01,15,07,04,4.80
2011,01,15,07,05,4.80
2011,01,15,07,06,3.20
2011,01,15,07,07,3.20
2011,01,15,07,08,1.60
2011,01,15,07,09,1.60
2011,01,15,07,10,1.60
2011,01,15,07,12,3.20
2011,01,15,07,13,3.20
2011,01,15,07,14,4.80
2011,01,15,07,15,4.80
2011,01,15,07,16,4.80
2011,01,15,07,17,6.40
2011,01,15,07,18,1.60
2011,01,15,07,19,1.60
2011,01,15,07,20,4.80
2011,01,15,07,21,3.20
2011,01,15,07,22,4.80
2011,01,15,07,23,3.20
2011,01,15,07,24,4.80
2011,01,15,07,25,1.60
2011,01,15,07,27,1.60
2011,01,15,07,28,6.40
2011,01,15,07,29,4.80
2011,01,15,07,30,3.20
2011,01,15,07,31,8.10
2011,01,15,07,32,6.40
2011,01,15,07,33,4.80
2011,01,15,07,34,3.20
2011,01,15,07,36,3.20
2011,01,15,07,37,1.60
2011,01,15,07,38,3.20
2011,01,15,07,39,1.60
2011,01,15,07,55,3.20
2011,01,15,07,56,1.60
2011,01,15,07,57,1.60
2011,01,15,07,58,3.20
2011,01,15,07,59,4.80
2011,01,15,08,00,3.20
2011,01,15,08,01,1.60
2011,01,15,08,05,1.60
2011,01,15,08,06,1.60
2011,01,15,08,07,1.60
2011,01,15,08,10,1.60
2011,01,15,08,13,1.60
2011,01,15,08,14,1.60
2011,01,15,08,15,1.60
2011,01,15,08,16,3.20
2011,01,15,08,17,3.20
2011,01,15,08,18,3.20
2011,01,15,08,19,3.20
2011,01,15,08,20,3.20
2011,01,15,08,27,3.20
2011,01,15,08,28,1.60
2011,01,15,08,35,1.60
2011,01,15,08,36,3.20
2011,01,15,08,37,4.80
2011,01,15,08,38,4.80
2011,01,15,08,39,1.60
2011,01,15,08,40,3.20
2011,01,15,08,41,3.20
2011,01,15,08,42,3.20
2011,01,15,08,43,4.80
2011,01,15,08,44,3.20
2011,01,15,08,45,4.80
2011,01,15,08,46,3.20
2011,01,15,08,47,3.20
2011,01,15,08,48,1.60
2011,01,15,08,49,3.20
2011,01,15,08,51,1.60
2011,01,15,08,52,3.20
2011,01,15,08,53,1.60
2011,01,15,08,54,1.60
2011,01,15,08,55,1.60
2011,01,15,08,57,1.60
2011,01,15,09,00,1.60
2011,01,15,09,04,1.60
2011,01,15,09,05,1.60
2011,01,15,09,09,1.60
2011,01,15,09,10,1.60
2011,01,15,09,14,1.60
2011,01,15,09,16,1.60
2011,01,15,09,17,3.20
2011,01,15,09,18,3.20
2011,01,15,09,19,3.20
2011,01,15,09,20,1.60
2011,01,15,09,21,4.80
2011,01,15,09,22,4.80
2011,01,15,09,23,4.80
2011,01,15,09,24,3.20
2011,01,15,09,29,1.60
2011,01,15,09,51,1.60
2011,01,15,09,52,1.60
2011,01,15,10,06,1.60
2011,01,15,10,08,1.60
2011,01,15,10,09,1.60
2011,01,15,10,23,1.60
2011,01,15,10,30,1.60
2011,01,15,10,40,1.60
2011,01,15,10,41,1.60
2011,01,15,10,42,1.60
2011,01,15,10,50,1.60
2011,01,15,10,55,1.60
2011,01,15,10,59,1.60
2011,01,15,11,00,1.60
2011,01,15,11,01,1.60
2011,01,15,11,20,1.60
2011,01,15,11,22,1.60
2011,01,15,11,23,1.60
2011,01,15,11,24,1.60
2011,01,15,11,25,1.60
2011,01,15,11,26,1.60
2011,01,15,11,27,3.20
2011,01,15,11,28,1.60
2011,01,15,11,29,3.20
2011,01,15,11,30,3.20
2011,01,15,11,31,3.20
2011,01,15,11,32,1.60
2011,01,15,11,33,3.20
2011,01,15,11,35,1.60
2011,01,15,11,38,1.60
2011,01,15,11,42,1.60
2011,01,15,11,47,1.60
2011,01,15,11,48,1.60
2011,01,15,11,49,1.60
2011,01,15,11,50,1.60
2011,01,15,11,51,1.60
2011,01,15,11,52,1.60
2011,01,15,12,01,1.60
2011,01,15,12,26,1.60
2011,01,15,12,28,1.60
2011,01,15,12,29,1.60
2011,01,15,12,30,1.60
2011,01,15,12,31,1.60
2011,01,15,12,35,1.60
2011,01,15,12,36,1.60
2011,01,15,12,37,3.20
2011,01,15,12,38,1.60
2011,01,15,12,42,1.60
2011,01,15,12,44,3.20
2011,01,15,12,45,3.20
2011,01,15,12,46,3.20
2011,01,15,12,48,3.20
2011,01,15,12,49,1.60
2011,01,15,12,50,1.60
2011,01,15,12,51,1.60
2011,01,15,12,52,1.60
2011,01,15,12,53,1.60
2011,01,15,12,56,1.60
2011,01,15,12,58,3.20
2011,01,15,12,59,1.60
2011,01,15,13,00,3.20
2011,01,15,13,01,1.60
2011,01,15,13,02,1.60
2011,01,15,13,03,4.80
2011,01,15,13,04,1.60
2011,01,15,13,05,3.20
2011,01,15,13,06,3.20
2011,01,15,13,07,3.20
2011,01,15,13,08,3.20
2011,01,15,13,09,1.60
2011,01,15,13,10,3.20
2011,01,15,13,11,1.60
2011,01,15,13,12,3.20
2011,01,15,13,13,3.20
2011,01,15,13,14,4.80
2011,01,15,13,15,3.20
2011,01,15,13,16,1.60
2011,01,15,13,17,1.60
2011,01,15,13,19,1.60
2011,01,15,13,20,1.60
2011,01,15,13,26,3.20
2011,01,15,13,27,4.80
2011,01,15,13,28,1.60
2011,01,15,13,29,1.60
2011,01,15,13,31,3.20
2011,01,15,13,32,3.20
2011,01,15,13,38,3.20
2011,01,15,13,39,3.20
2011,01,15,13,40,3.20
2011,01,15,13,42,1.60
2011,01,15,13,43,1.60
2011,01,15,13,44,1.60
2011,01,15,13,45,3.20
2011,01,15,13,46,4.80
2011,01,15,13,47,1.60
2011,01,15,15,26,1.60
2011,01,15,15,28,1.60
2011,01,15,15,29,3.20
2011,01,15,15,30,3.20
2011,01,15,15,32,1.60
2011,01,15,15,33,3.20
2011,01,15,15,34,4.80
2011,01,15,15,36,1.60
2011,01,15,15,37,1.60
2011,01,15,15,38,1.60
2011,01,15,15,39,1.60
2011,01,15,15,40,1.60
2011,01,15,15,43,1.60
2011,01,15,15,55,3.20
2011,01,15,15,56,3.20
2011,01,15,15,57,1.60
2011,01,15,15,58,1.60
2011,01,15,15,59,1.60
2011,01,15,16,01,3.20
2011,01,15,16,02,3.20
2011,01,15,16,03,4.80
2011,01,15,16,04,4.80
2011,01,15,16,05,3.20
2011,01,15,16,07,1.60
2011,01,15,16,08,1.60
2011,01,15,16,09,1.60
2011,01,15,16,15,3.20
2011,01,15,16,17,1.60
2011,01,15,16,18,1.60
2011,01,15,16,19,4.80
2011,01,15,16,20,3.20
2011,01,15,16,23,1.60
2011,01,15,16,25,4.80
2011,01,15,16,26,6.40
2011,01,15,16,27,3.20
2011,01,15,16,28,3.20
2011,01,15,16,29,1.60
2011,01,15,16,34,1.60
2011,01,15,16,35,3.20
2011,01,15,16,45,1.60
2011,01,15,16,48,1.60
2011,01,15,16,55,1.60
2011,01,15,16,56,1.60
2011,01,15,16,58,1.60
2011,01,15,16,59,3.20
2011,01,15,17,00,3.20
2011,01,15,17,01,6.40
2011,01,15,17,02,6.40
2011,01,15,17,03,4.80
2011,01,15,17,04,4.80
2011,01,15,17,05,4.80
2011,01,15,17,06,4.80
2011,01,15,17,07,3.20
2011,01,15,17,08,6.40
2011,01,15,17,09,8.10
2011,01,15,17,10,8.10
2011,01,15,17,12,1.60
2011,01,15,17,13,3.20
2011,01,15,17,14,3.20
2011,01,15,17,16,1.60
2011,01,15,17,17,1.60
2011,01,15,17,19,4.80
2011,01,15,17,20,4.80
2011,01,15,17,21,1.60
2011,01,15,17,22,8.10
2011,01,15,17,23,3.20
2011,01,15,17,29,1.60
2011,01,15,17,31,1.60
2011,01,15,17,35,1.60
2011,01,15,17,39,1.60
2011,01,15,17,42,4.80
2011,01,15,17,43,1.60
2011,01,15,17,44,1.60
2011,01,15,17,45,1.60
2011,01,15,17,46,1.60
2011,01,15,17,47,4.80
2011,01,15,17,48,1.60
2011,01,15,17,49,3.20
2011,01,15,17,50,4.80
2011,01,15,17,51,3.20
2011,01,15,17,52,3.20
2011,01,15,17,53,1.60
2011,01,15,17,55,1.60
2011,01,15,17,56,3.20
2011,01,15,17,57,3.20
2011,01,15,17,58,3.20
2011,01,15,17,59,4.80
2011,01,15,18,00,1.60
2011,01,15,18,01,1.60
2011,01,15,18,04,1.60
2011,01,15,18,07,3.20
2011,01,15,18,08,1.60
2011,01,15,18,09,1.60
2011,01,15,18,10,1.60
2011,01,15,18,13,1.60
2011,01,15,18,14,1.60
2011,01,15,18,18,1.60
2011,01,15,18,20,3.20
2011,01,15,18,21,4.80
2011,01,15,18,22,3.20
2011,01,15,18,23,8.10
2011,01,15,18,24,9.60
2011,01,15,18,25,9.60
2011,01,15,18,26,9.60
2011,01,15,18,27,3.20
2011,01,15,18,28,4.80
2011,01,15,18,29,3.20
2011,01,15,18,31,1.60
2011,01,15,18,36,1.60
2011,01,15,18,37,1.60
2011,01,15,18,38,1.60
2011,01,15,18,39,1.60
2011,01,15,18,40,1.60
2011,01,15,18,41,1.60
2011,01,15,18,42,1.60
2011,01,15,18,43,1.60
2011,01,15,18,44,4.80
2011,01,15,18,45,1.60
2011,01,15,18,46,3.20
2011,01,15,18,48,1.60
2011,01,15,18,51,1.60
2011,01,15,18,52,4.80
2011,01,15,18,53,4.80
2011,01,15,18,54,4.80
2011,01,15,18,55,1.60
2011,01,15,18,56,4.80
2011,01,15,18,57,4.80
2011,01,15,18,58,11.30
2011,01,15,18,59,6.40
2011,01,15,19,00,3.20
2011,01,15,19,01,6.40
2011,01,15,19,02,6.40
2011,01,15,19,03,4.80
2011,01,15,19,04,4.80
2011,01,15,19,05,4.80
2011,01,15,19,06,4.80
2011,01,15,19,07,3.20
2011,01,15,19,08,6.40
2011,01,15,19,09,6.40
2011,01,15,19,10,3.20
2011,01,15,19,11,8.10
2011,01,15,19,12,6.40
2011,01,15,19,13,4.80
2011,01,15,19,14,6.40
2011,01,15,19,15,4.80
2011,01,15,19,16,9.60
2011,01,15,19,17,9.60
2011,01,15,19,18,9.60
2011,01,15,19,19,4.80
2011,01,15,19,20,4.80
2011,01,15,19,21,6.40
2011,01,15,19,22,8.10
2011,01,15,19,23,16.10
2011,01,15,19,24,14.50
2011,01,15,19,25,4.80
2011,01,15,19,26,8.10
2011,01,15,19,27,6.40
2011,01,15,19,28,4.80
2011,01,15,19,29,8.10
2011,01,15,19,30,9.60
2011,01,15,19,31,3.20
2011,01,15,19,32,1.60
2011,01,15,19,33,1.60
2011,01,15,19,34,4.80
2011,01,15,19,35,4.80
2011,01,15,19,36,1.60
2011,01,15,19,38,3.20
2011,01,15,19,39,3.20
2011,01,15,19,40,3.20
2011,01,15,19,42,1.60
2011,01,15,19,43,1.60
2011,01,15,19,45,1.60
2011,01,15,19,46,3.20
2011,01,15,19,47,3.20
2011,01,15,19,48,3.20
2011,01,15,19,49,4.80
2011,01,15,19,50,3.20
2011,01,15,19,51,4.80
2011,01,15,19,52,4.80
2011,01,15,19,53,4.80
2011,01,15,19,54,3.20
2011,01,15,19,55,3.20
2011,01,15,19,56,4.80
2011,01,15,19,57,3.20
2011,01,15,19,58,1.60
2011,01,15,19,59,3.20
2011,01,15,20,00,3.20
2011,01,15,20,01,1.60
2011,01,15,20,04,1.60
2011,01,15,20,17,1.60
2011,01,15,20,18,1.60
2011,01,15,20,19,1.60
2011,01,15,20,20,1.60
2011,01,15,20,21,1.60
2011,01,15,20,22,3.20
2011,01,15,20,23,3.20
2011,01,15,20,24,3.20
2011,01,15,20,25,3.20
2011,01,15,20,26,1.60
2011,01,15,20,27,1.60
2011,01,15,20,28,3.20
2011,01,15,20,29,4.80
2011,01,15,20,30,1.60
2011,01,15,20,31,3.20
2011,01,15,20,32,4.80
2011,01,15,20,33,3.20
2011,01,15,20,34,3.20
2011,01,15,20,35,4.80
2011,01,15,20,36,4.80
2011,01,15,20,37,4.80
2011,01,15,20,39,1.60
2011,01,15,20,40,1.60
2011,01,15,20,42,1.60
2011,01,15,20,43,4.80
2011,01,15,20,44,1.60
2011,01,15,20,45,6.40
2011,01,15,20,46,3.20
2011,01,15,20,47,1.60
2011,01,15,20,48,1.60
2011,01,15,20,49,1.60
2011,01,15,20,50,6.40
2011,01,15,20,51,4.80
2011,01,15,20,52,6.40
2011,01,15,20,53,6.40
2011,01,15,20,54,4.80
2011,01,15,20,55,3.20
2011,01,15,20,56,3.20
2011,01,15,20,57,4.80
2011,01,15,20,58,3.20
2011,01,15,20,59,1.60
2011,01,15,21,00,1.60
2011,01,15,21,02,1.60
2011,01,15,21,03,3.20
2011,01,15,21,04,1.60
2011,01,15,21,07,3.20
2011,01,15,21,08,3.20
2011,01,15,21,09,3.20
2011,01,15,21,10,3.20
2011,01,15,21,11,1.60
2011,01,15,21,12,3.20
2011,01,15,21,13,1.60
2011,01,15,21,14,4.80
2011,01,15,21,15,3.20
2011,01,15,21,16,4.80
2011,01,15,21,17,4.80
2011,01,15,21,18,3.20
2011,01,15,21,19,3.20
2011,01,15,21,20,4.80
2011,01,15,21,21,3.20
2011,01,15,21,22,3.20
2011,01,15,21,38,1.60
2011,01,15,21,39,1.60
2011,01,15,21,42,1.60
2011,01,15,21,43,1.60
2011,01,15,21,44,1.60
2011,01,15,21,46,4.80
2011,01,15,21,47,6.40
2011,01,15,21,49,3.20
2011,01,15,21,50,3.20
2011,01,15,21,51,1.60
2011,01,15,21,52,4.80
2011,01,15,21,53,6.40
2011,01,15,21,55,4.80
2011,01,15,21,56,3.20
2011,01,15,21,58,1.60
2011,01,15,21,59,1.60
2011,01,15,22,00,3.20
2011,01,15,22,01,3.20
2011,01,15,22,02,1.60
2011,01,15,22,03,1.60
2011,01,15,22,04,1.60
2011,01,15,22,14,1.60
2011,01,15,22,15,4.80
2011,01,15,22,16,6.40
2011,01,15,22,17,6.40
2011,01,15,22,18,8.10
2011,01,15,22,19,9.60
2011,01,15,22,20,11.30
2011,01,15,22,21,8.10
2011,01,15,22,22,8.10
2011,01,15,22,23,8.10
2011,01,15,22,24,11.30
2011,01,15,22,25,8.10
2011,01,15,22,26,11.30
2011,01,15,22,27,9.60
2011,01,15,22,28,6.40
2011,01,15,22,29,11.30
2011,01,15,22,30,1.60
2011,01,15,22,31,3.20
2011,01,15,22,32,1.60
2011,01,15,22,33,1.60
2011,01,15,22,34,1.60
2011,01,15,22,35,6.40
2011,01,15,22,36,6.40
2011,01,15,22,37,6.40
2011,01,15,22,38,3.20
2011,01,15,22,39,8.10
2011,01,15,22,40,6.40
2011,01,15,22,41,4.80
2011,01,15,22,42,8.10
2011,01,15,22,43,4.80
2011,01,15,22,44,1.60
2011,01,15,22,45,3.20
2011,01,15,22,47,1.60
2011,01,15,22,49,3.20
2011,01,15,22,50,1.60
2011,01,15,22,52,1.60
2011,01,15,22,53,1.60
2011,01,15,22,54,3.20
2011,01,15,23,02,1.60
2011,01,15,23,03,1.60
2011,01,15,23,04,1.60
2011,01,15,23,06,1.60
2011,01,15,23,07,1.60
2011,01,15,23,08,1.60
2011,01,15,23,09,1.60
2011,01,15,23,10,1.60
2011,01,15,23,11,1.60
2011,01,15,23,12,1.60
2011,01,15,23,13,3.20
2011,01,15,23,14,1.60
2011,01,15,23,15,3.20
2011,01,15,23,16,3.20
2011,01,15,23,17,3.20
2011,01,15,23,18,3.20
2011,01,15,23,19,1.60
2011,01,15,23,20,3.20
2011,01,15,23,21,3.20
2011,01,15,23,22,1.60
2011,01,15,23,23,4.80
2011,01,15,23,24,4.80
2011,01,15,23,25,6.40
2011,01,15,23,26,3.20
2011,01,15,23,27,3.20
2011,01,15,23,28,3.20
2011,01,15,23,29,1.60
2011,01,15,23,30,3.20
2011,01,15,23,31,4.80
2011,01,15,23,32,8.10
2011,01,15,23,33,6.40
2011,01,15,23,34,3.20
2011,01,15,23,35,1.60
2011,01,15,23,36,4.80
2011,01,15,23,37,9.60
2011,01,15,23,38,9.60
2011,01,15,23,39,9.60
2011,01,15,23,40,6.40
2011,01,15,23,41,9.60
2011,01,15,23,42,6.40
2011,01,15,23,43,8.10
2011,01,15,23,44,6.40
2011,01,15,23,45,9.60
2011,01,15,23,46,6.40
2011,01,15,23,47,9.60
2011,01,15,23,48,4.80
2011,01,15,23,49,4.80
2011,01,15,23,50,6.40
2011,01,15,23,51,9.60
2011,01,15,23,52,4.80
2011,01,15,23,53,8.10
2011,01,15,23,54,8.10
2011,01,15,23,55,3.20
2011,01,15,23,56,4.80
2011,01,15,23,57,4.80
2011,01,15,23,58,6.40
2011,01,15,23,59,4.80
